Location: ??
(34.9170°N, 135.5016°E)
Time: 04:57:28
(UTC+00:00)

Explorer 7 - Pass Details

Date: 07 March 2021
Orbit: 484 x 677 km, 50.3° (Epoch: 14 April)

Event Time Altitude Azimuth Distance (km) Brightness Sun altitude
Rises 08:41:48 0° 318° (NW) 2,786 10.9 2.6°
Reaches altitude 10° 08:44:30 10° 333° (NNW) 1,846 9.8 2.1°
Maximum altitude 08:47:52 23° 26° (NNE) 1,175 8.2 1.4°
Drops below altitude 10° 08:51:05 10° 80° (E) 1,752 8.7 0.7°
Sets 08:53:34 0° 96° (E) 2,607 9.6 0.2°
Enters shadow 08:53:46 -1° 97° (E) 2,679 9.7 0.2°
